Location: Unspecified
(47.4992°N, 121.7766°W)
Time: 09:31:38
(UTC-08:00)

ISS - Visible Passes

Search period start: 22 February 2020 00:00
Search period end: 03 March 2020 00:00
Orbit: 415 x 422 km, 51.6° (Epoch: 23 February)

Date Brightness Start Highest point End Pass type
(mag) Time Alt. Az. Time Alt. Az. Time Alt. Az.
22 Feb -0.9 05:26:45 10° S 05:28:43 15° SE 05:30:42 10° E visible
23 Feb -3.0 06:14:11 10° SW 06:17:28 51° SSE 06:20:46 10° ENE visible
24 Feb -2.3 05:27:37 15° SSW 05:29:55 34° SE 05:33:01 10° ENE visible
25 Feb -1.7 04:42:13 22° SE 04:42:24 22° SE 04:45:06 10° E visible
25 Feb -3.7 06:15:33 10° WSW 06:18:55 77° NNW 06:22:19 10° ENE visible
26 Feb -0.4 03:56:41 11° ESE 03:56:41 11° ESE 03:56:53 10° E visible
26 Feb -3.7 05:29:38 28° SW 05:31:15 76° SSE 05:34:39 10° ENE visible
27 Feb -3.0 04:44:00 48° ESE 04:44:00 48° ESE 04:46:56 10° ENE visible
27 Feb -3.2 06:17:12 10° W 06:20:29 48° NNW 06:23:47 10° ENE visible
28 Feb -0.7 03:58:16 16° E 03:58:16 16° E 03:59:08 10° ENE visible
28 Feb -3.5 05:31:13 29° W 05:32:44 59° NNW 05:36:06 10° ENE visible
29 Feb -3.4 04:45:25 64° NE 04:45:25 64° NE 04:48:24 10° ENE visible
01 Mar -1.0 03:59:34 19° ENE 03:59:34 19° ENE 04:00:41 10° ENE visible
01 Mar -3.0 05:32:31 22° WNW 05:34:17 42° N 05:37:31 10° ENE visible
02 Mar -3.1 04:46:37 47° N 04:46:37 47° N 04:49:47 10° ENE visible
